Regional Weather Roundup
Issued by NWS

Home | Current Version | Previous Version | Graphics & Text | Print | Product List | Glossary On
Versions: 1 2 3 4 5 6 7 8 9 10 11 12 13 14 15 16 17 18 19 20 21 22 23 24 25 26 27 28 29 30 31 32 33 34 35 36 37 38 39 40 41 42 43 44 45 46 47 48 49 50
462
ASUS43 KOAX 110810
RWRNE

WEATHER ROUNDUP FOR NEBRASKA
NATIONAL WEATHER SERVICE OMAHA NE
200 AM CST THU FEB 11 2016

NOTES: SATELLITE DATA IS BEING USED TO AUGMENT CLOUD COVER ABOVE
       12000 FEET.
       "FAIR" INDICATES FEW OR NO CLOUDS BELOW 12,000 FEET WITH NO
       SIGNIFICANT WEATHER AND/OR OBSTRUCTIONS TO VISIBILITY.

  * THESE STATIONS DO NOT REPORT WEATHER SUCH AS RAIN...SNOW OR FOG.

NEZ001>004-019>022-054>056-110900-
NEBRASKA PANHANDLE

CITY           SKY/WX    TMP DP  RH WIND       PRES   REMARKS
SCOTTSBLUFF    CLOUDY    30  24  78 NW7       30.13F WCI  23
ALLIANCE       CLOUDY    24  22  91 W5        30.11S WCI  18
CHADRON        CLOUDY    27  23  85 CALM      30.11F
KIMBALL        CLOUDY    33  24  71 SW9       30.16S WCI  25
SIDNEY         CLOUDY    35  24  64 W12       30.14S WCI  27
$$

NEZ057>060-069>072-079>082-110900-
SOUTHWEST NEBRASKA

CITY           SKY/WX    TMP DP  RH WIND       PRES   REMARKS
NORTH PLATTE   CLEAR     30  25  81 N3        30.16R
IMPERIAL       CLOUDY    32  26  78 NW5       30.15S WCI  27
LEXINGTON      CLEAR     27  24  87 E3        30.17R
MCCOOK         CLOUDY    34  28  79 CALM      30.16R
OGALLALA       CLOUDY    28  26  89 CALM      30.15S
$$

NEZ005>010-023>029-035>040-094-110900-
NORTH CENTRAL NEBRASKA

CITY           SKY/WX    TMP DP  RH WIND       PRES   REMARKS
VALENTINE      CLOUDY    27  25  92 W5        30.17S WCI  22
AINSWORTH      CLOUDY    28  24  87 N10       30.15F WCI  18
BROKEN BOW     CLOUDY    31  27  85 N10       30.16R WCI  22
O`NEILL        CLOUDY    26  24  91 NW6       30.18S WCI  20
ORD            CLOUDY    29  25  85 N8        30.17R WCI  21
THEDFORD       CLOUDY    31  30  96 N6        30.15F WCI  25
$$

NEZ041-046>049-061>064-073>077-083>087-110900-
SOUTH CENTRAL NEBRASKA

CITY           SKY/WX    TMP DP  RH WIND       PRES   REMARKS
GRAND ISLAND   CLOUDY    25  23  92 NE6       30.19R WCI  18
AURORA         CLOUDY    25  23  94 N7        30.18R WCI  17
HASTINGS       CLOUDY    29  24  82 N7        30.17R WCI  22
HEBRON         CLOUDY    25  22  91 N9        30.17R WCI  15
HOLDREGE       CLOUDY    26  25  93 N7        30.17R WCI  19
KEARNEY *      CLOUDY    28  25  86 N15       30.17R WCI  17
YORK           CLOUDY    23  23 100 NE7       30.18R WCI  15
$$

NEZ011>018-030>034-042>045-110900-
NORTHEAST NEBRASKA

CITY           SKY/WX    TMP DP  RH WIND       PRES   REMARKS
NORFOLK        CLOUDY    21  16  81 N9        30.21R WCI  11
ALBION         CLOUDY    23  19  85 N6        30.19R WCI  16
BLAIR          PTCLDY    17  14  88 N9        30.19R WCI   6
COLUMBUS *     CLOUDY    21  10  63 N8        30.21R WCI  12
FREMONT        MOCLDY    15  12  85 CALM      30.23R
TEKAMAH        CLOUDY    17  12  80 N14       30.25R WCI   3
WAYNE          CLOUDY    18  14  85 N8        30.25R WCI   7
$$

NEZ050>053-065>068-078-088>093-110900-
SOUTHEAST NEBRASKA

CITY           SKY/WX    TMP DP  RH WIND       PRES   REMARKS
LINCOLN        CLOUDY    19  16  88 N12       30.21R WCI   7
OMAHA EPPLEY   PTCLDY    19  14  81 NE8       30.22R WCI   9
BEATRICE       CLOUDY    24  23  93 NE8       30.17S WCI  16
FALLS CITY     CLOUDY    23  19  85 NE6       30.15F WCI  16
NEBRASKA CITY  CLOUDY    23  20  89 NE8       30.17R WCI  14
PLATTSMOUTH    MOCLDY    20  17  88 N7        30.19R WCI  11
$$

NEZ044-045-051>053-067-110900-
OMAHA AREA

CITY           SKY/WX    TMP DP  RH WIND       PRES   REMARKS
OMAHA EPPLEY   PTCLDY    19  14  81 NE8       30.22R WCI   9
BLAIR          PTCLDY    17  14  88 N9        30.19R WCI   6
FREMONT        MOCLDY    15  12  85 CALM      30.23R
MILLARD        CLOUDY    20  15  81 N3        30.21R
OFFUTT AFB     CLOUDY    19  14  83 N10       30.21R WCI   7
PLATTSMOUTH    MOCLDY    20  17  88 N7        30.19R WCI  11
WAHOO          FAIR      16  13  88 N7        30.22R WCI   6
$$




USA.gov is the U.S. government's official web portal to all federal, state and local government web resources and services.